CZ-3C DEB, 40870

Orbit data source: Space-Track

CZ-3C DEB, 40870 is space debris originally from a launch on Fri, 24 Feb 2012 UTC launched from the Xichang Space Center, China (XSC). Debris objects in space refer to the collection of defunct objects orbiting the Earth. Examples of debris include non-operational satellites, rocket bodies, and fragments generated from explosions, collisions, or faulty payload assembly.

Loading next visibility...
CZ-3C DEB details
Identifier
40870, 2012-008AL
Orbit
Molniya
Last TLE update6 months ago
Origin
Flag of CNCASC (CN / PRC)
ManufacturerCALT
MissionSpacecraft
Bus & MotorUnknown
MassUnknown
Launch date (UTC)
2012-02-24 (13 years ago)
Launch vehicleUnknown
Launch site
Xichang Space Center, China (XSC)
Object type
Payload
Rocket body
Debris
Shape & HBRUnknown
Radar Cross SectionSmall (<0.1 m²)

Expand to show TLE details & history

TLE from 6 months ago
0 CZ-3C DEB
1 40870U 12008AL  24165.92102058  .00000168  00000-0 -39851-2 0  9999
2 40870  17.7911  49.3478 7297123 302.7863   7.1163  2.05052376 20147
Epoch: 2024-06-13T22:06Z
Definitive object data (Epoch: 2024-06-13T22:06:16.178Z)
Latitude0.0016°
Longitude175.02499°
Altitude2,423.956 km
Speed8.679 km/s
True Right ascension03h 17m 11s
True Declination0° 00' 06"
Sunlit
Object was in daylight at TLE epoch
Visualization TLE readout
Latitude-5.38457°
Longitude-43.27241°
Altitude28,630.758 km
Speed2.746 km/s
Apparent Right ascension12h 48m 50s
Apparent Declination-10° 29' 40"
Sunlit
Object is in daylight
Visualization observer readout
Local Sidereal Time01:23:19
Azimuth16.934° NNE
Elevation-59.599°
Doppler factor1
Orbital elements
Apogee altitude38,898.543 km
Perigee altitude696.872 km
Semi-major axis26,175.844 km
Eccentricity0.7297123
Inclination17.7911°
RAAN49.3478°
Arg. of periapsis302.7863°
True anomaly57.27942°
Mean anomaly7.1163°
Eccentric anomaly24.36411°
Mean motion0.5125 °/min
BSTAR-0.0039851
Orbital period702.44 mins
Loading maneuver chart data...
Loading historical data...
Loading historical data...
Loading historical data...
Loading historical data...
Loading historical data...
Loading historical data...
Loading historical data...

CZ-3C DEB Visibility forecast

Observer location: undefined°, undefined

Span
Click to sort rows by Start time (UTC) header in descending order
Start Az.
Max El. time (UTC)
Max El. Az.
Max El.
End time (UTC)
End Az.
477 mins2024-12-05 12:55:04.870Z247.109° WSW2024-12-05 13:47:04.870Z192.572° SSW31.977°2024-12-05 20:52:04.870Z227.123° WSW
|